Weather in Glebovo

Russia / Yaroslavl Oblast     58°00′10″N   38°26′52″E
temp.,
°C
wind,
m/s
gust,
m/s
humid.,
%
clouds,
%
prec.,
mm/h
press.,
hPa
HPBL,
m
8 may, sat
sat800:00+5s3885100 0.0 1011158
03:00+5sse397959 0.0 1011194
06:00+7sse41469100 0.0 1010452
09:00+10sse61462100 0.0 10091370
12:00+8sse61489100 2.1 10081398
15:00+8sse61191100 7.4 10071181
18:00+7sse51094100 5.7 10051155
21:00+7ene2499100 11.9 1003177
9 may, sun
sun900:00+7nw2399100 4.6 1001194
03:00+5nw61296100 5.4 1002546
06:00+3nw71397100 2.8 1004779
09:00+3nw61396100 5.9 1007869
12:00+5nw61185100 1.4 10111026
15:00+9nnw51055100 1.4 10141737
18:00+10nw495575 0.0 10161600
21:00+5wnw35751 0.1 102088
10 may, mon
mon1000:00+3wnw39770 0.0 1022165
03:00+2wnw23784 0.0 102557
06:00+3w12676 0.0 102758
09:00+10sw234521 0.0 1028595
12:00+13sw45425 0.0 10281466
15:00+14sw4644100 0.0 10281730
18:00+11ssw2768100 0.0 1028226
21:00+8ssw377912 0.0 1029113
11 may, tue
tue1100:00+7ssw378314 0.0 1030106
03:00+6ssw3688100 0.0 1030104
06:00+8ssw258366 0.0 1031129
09:00+14ssw34625 0.0 1031480
12:00+18ssw335216 0.0 10311024
15:00+19ssw335041 0.0 10301335
18:00+18wsw1260100 0.0 1029452
21:00+13sse2282100 0.0 103015
12 may, wed
wed1200:00+10sse238820 0.0 103049
03:00+9se22881 0.0 103014
06:00+10se26810 0.0 1031154
09:00+16se365413 0.0 1030645
12:00+19ese464511 0.0 10291111
15:00+20se454321 0.0 10281268
18:00+19ese35540 0.0 1028751
21:00+13ese24790 0.0 102848